ROMMA est une association bénévole à but non lucratif. Votre soutien est indispensable : ADHERER à ROMMA ou FAIRE un DON

Chambon - (38, Isère)

Oisans (2460 m)   Longitude: 06° 10' 42" E   Latitude: 45° 01' 32" N Station partenaire n°803
 

Détail journalier du     <<     >>

Température Humidité Vent Dir Rafale Dir. rafale Neige 1 Neige 2
Heure (°C) (%) (km/h) (km/h) (cm) (cm)
01:00 5.5624ENE11SSO03
02:00 5.7596SSO11SSO03
03:00 5.8564SO7SO03
04:00 6.2502SO6O14
05:00 6.5485SSO8SSO03
06:00 5.9504SSO8SSO14
07:00 6.0492NE5O14
08:00 6.1482OSO5OSO04
09:00 6.2461N3N14
10:00 6.6472SSE4SSE03
11:00 11.2381SSE5SSE01
12:00 11.0412N11OSO01
13:00 9.4495SO16O02
14:00 9.4526OSO15OSO01
15:00 9.4524O14O01
16:00 9.4587OSO15OSO02
17:00 9.4598OSO15OSO02
18:00 8.6535OSO13OSO02
19:00 7.2604NNE9NNE03
20:00 7.3593NNE9NNE03
21:00 7.3551ESE6SSO04
22:00 7.5523ESE5ESE03
23:00 7.5493SO6O04
minuit 7.9463SO14SO03

Graphique du 26-10-2019

 

Serveur OMMA